Weather Roundup
Issued by NWS Springfield, MO

Home | Current Version | Previous Version | Text Only | Print | Product List | Glossary On
Versions: 1 2 3 4 5 6 7 8 9 10 11 12 13 14 15 16 17 18 19 20 21 22 23 24 25 26 27 28 29 30 31 32 33 34 35 36 37 38 39 40 41 42 43 44 45 46 47 48 49 50
000
NZUS99 KSGF 252207
HRRSGF

HOURLY WEATHER
NATIONAL WEATHER SERVICE SPRINGFIELD MO
500 PM CDT SAT MAR 25 2017

......SGF CWA......

CITY           SKY/WX    TMP DP  RH WIND       PRES   REMARKS
SPRINGFIELD    CLOUDY    50  47  89 W17       29.85R
JOPLIN         CLOUDY    49  45  86 W10       29.89R
WEST PLAINS    LGT RAIN  57  53  86 W10       29.83R
ROLLA          LGT RAIN  60  56  86 S8        29.75S
OSAGE BEACH    CLOUDY   N/A N/A N/A W7        29.77S
BRANSON        CLOUDY    50  46  87 W9G16     29.88R

......SURROUNDING SGF CWA......

CITY           SKY/WX    TMP DP  RH WIND       PRES   REMARKS
CHANUTE        CLOUDY    49  45  86 W13       29.88R
PARSONS        CLOUDY    49  43  80 W13       29.90S
COFFEYVILLE    CLOUDY    49  42  77 NW13      29.91R
EMPORIA        CLOUDY    45  45 100 NW14      29.87S FOG
GROVE OK       LGT RAIN  50  45  81 W8        29.92S
ROGERS AR      LGT RAIN  47  45  93 W9        29.91R FOG
SILOAM SPRINGS CLOUDY    46  43  87 W10       29.91S
HARRISON AR    CLOUDY    52  47  83 W5        29.89R
NEAR YELLVILLE CLOUDY    59  45  58 W12       29.83S

......KANSAS AND MISSOURI......

CITY           SKY/WX    TMP DP  RH WIND       PRES   REMARKS
KANSAS CTY INT CLOUDY    50  48  93 N10       29.83S
DOWNTOWN KC    CLOUDY    55  48  77 N12       29.82R
COLUMBIA       LGT RAIN  58  58 100 E9        29.78R
SEDALIA        CLOUDY    62  55  77 N6        29.78F
ST JOSEPH      CLOUDY    49  46  90 N14       29.86S
ST LOUIS       PTSUNNY   66  56  70 SE15      29.79F
SPIRIT OF STL  PTSUNNY   66  57  72 SE12G20   29.77F
KIRKSVILLE     CLOUDY    50  49  96 NE13      29.82S FOG
WICHITA        CLOUDY    46  41  82 N13       29.91F
TOPEKA         CLOUDY    48  46  93 N10       29.88R
OLATHE         CLOUDY    54  50  86 N10       29.82R

......TENNESSEE......

CITY           SKY/WX    TMP DP  RH WIND       PRES   REMARKS
MEMPHIS        CLOUDY    67  58  72 S15       29.88S
NASHVILLE      CLOUDY    68  59  73 SE14      29.99F

......ARKANSAS.......

CITY           SKY/WX    TMP DP  RH WIND       PRES   REMARKS
FAYETTEVILLE   CLOUDY    47  47 100 W8        29.92S FOG
FT SMITH       CLOUDY    55  45  68 W12       29.92S
LITTLE ROCK    PTSUNNY   70  50  49 W10       29.85F

......OKLAHOMA.......

CITY           SKY/WX    TMP DP  RH WIND       PRES   REMARKS
TULSA          CLOUDY    52  44  74 W10       29.91F
PONCA CITY     CLOUDY    50  40  68 NW9       29.93S
MCALESTER      PTSUNNY   61  45  55 NW10      29.92F
OKLAHOMA CITY  PTSUNNY   59  43  55 NW6       29.93F

......IOWA............

CITY           SKY/WX    TMP DP  RH WIND       PRES   REMARKS
DES MOINES     LGT RAIN  43  41  93 NE10      29.90F FOG
QUAD CITIES    CLOUDY    54  51  90 NE13      29.88S

......ILLINOIS........

CITY           SKY/WX    TMP DP  RH WIND       PRES   REMARKS
QUINCY         CLOUDY    61  56  83 E8        29.81F
CHICAGO        LGT RAIN  43  40  89 N10       29.99S FOG




USA.gov is the U.S. government's official web portal to all federal, state and local government web resources and services.